Bodensee (Kressbronn): 6,7°C  -  Teich der Wetterzentrale Bad Schussenried: 5,6°C |  Schneehöhe Kreuzthal-Steinberg (930 m ü. NN): 8 cm   
01.04.2020Höhe
ü. NN
ZeitTemperatur (°C)Nieder-
schlag
Luft-
feuchte
Luft-
druck
Wind
StationaktuellMinimumMaximumaktuellMaximum
Aldingen654 m05:56-3,2-3,2 (07:35)-0,3 (16:02)0,0 l/m²74%1023,53,7 km/h (1 Bft) W-SW29,6 km/h (5 Bft) W (14:48)
Allmendingen541 m05:55-6,3-6,3 (07:35)-2,1 (15:10)0,0 l/m²87%1023,40,0 km/h (0 Bft) NO35,4 km/h (5 Bft) O (15:35)
Altshausen574 m05:55-3,6-3,9 (05:14)-1,1 (00:16)0,0 l/m²66%1021,16,4 km/h (2 Bft) N8,0 km/h (2 Bft) N-NO (01:07)
Amstetten-Reutti663 m05:55-4,6-4,6 (05:55)-1,5 (16:55)0,0 l/m²86%1023,01,6 km/h (1 Bft) NO48,3 km/h (6 Bft) W (15:55)
Amtzell-Grenis677 m05:55-3,9-3,9 (05:55)-1,4 (00:00)0,0 l/m²63%1022,96,4 km/h (2 Bft) W-SW6,4 km/h (2 Bft) W-SW (00:00)
Aulendorf570 m05:55-2,7-2,7 (05:47)-0,5 (00:00)0,0 l/m²71%1021,98,0 km/h (2 Bft) N-NO14,5 km/h (3 Bft) O-NO (05:13)
Bad Krozingen233 m05:55-1,8-1,8 (05:55)3,7 (16:05)0,0 l/m²76%1023,23,5 km/h (1 Bft) S-SW38,1 km/h (5 Bft) N (17:05)
Bad Saulgau595 m05:55-4,8-4,8 (06:45)-1,9 (15:00)0,0 l/m²86%1021,70,0 km/h (0 Bft) S-SO25,7 km/h (4 Bft) S (11:35)
Bad Saulgau, Mannsgrab588 m05:53-5,3-6,1 (05:34)-1,7 (00:17)0,0 l/m²87%1024,40,0 km/h (0 Bft) N-NW0,0 km/h (0 Bft) N (00:00)
Bad Saulgau-Lampertsweiler627 m05:55-4,4-4,4 (05:50)0,2 (00:00)0,0 l/m²81%1024,86,4 km/h (2 Bft) N-NW22,5 km/h (4 Bft) N-NW (01:15)
Bad Schussenried572 m05:55-3,9-3,9 (05:50)-1,1 (00:00)0,0 l/m²87%1021,20,0 km/h (0 Bft) NO9,7 km/h (2 Bft) NO (03:15)
Bergatreute615 m01:45-0,7-0,7 (00:45)0,0 (00:00)0,0 l/m²77%1023,512,9 km/h (3 Bft) NO16,1 km/h (3 Bft) O-NO (01:40)
Biberach (Riss), Boehringer533 m06:00-4,0-4,1 (06:00)-1,1 (00:30)0,0 l/m²89%1022,13,2 km/h (1 Bft) N11,9 km/h (3 Bft) N (03:00)
Biberach (Riss), Realschule553 m05:55-3,8-3,8 (05:25)-0,3 (00:00)0,0 l/m²87%1023,79,7 km/h (2 Bft) N-NW11,3 km/h (2 Bft) N-NO (03:35)
Burgrieden523 m05:55-3,8-3,8 (05:55)-0,4 (00:00)0,0 l/m²81%1022,80,0 km/h (0 Bft) NO4,8 km/h (1 Bft) O-NO (02:50)
Burgrieden-Hochstetten510 m05:50-4,3-4,3 (06:50)-0,9 (15:40)0,0 l/m²88%1023,43,2 km/h (1 Bft) N-NO25,7 km/h (4 Bft) NO (12:55)
Ebersbach579 m05:55-3,8-3,8 (05:55)-0,1 (00:00)0,0 l/m²84%1023,36,4 km/h (2 Bft) N16,1 km/h (3 Bft) NO (01:25)
Ebersbach-Boos605 m05:55-4,2-4,2 (05:55)-0,1 (00:00)0,0 l/m²87%1023,10,0 km/h (0 Bft) N-NO22,5 km/h (4 Bft) O (01:00)
Ebersbach-Menzenweiler661 m05:55-3,5-3,5 (05:50)-0,6 (00:00)0,0 l/m²86%1022,914,5 km/h (3 Bft) NO24,1 km/h (4 Bft) O-NO (01:05)
Ehingen535 m01:10-2,5-2,5 (01:10)-1,3 (00:05)0,0 l/m²70%1025,40,0 km/h (0 Bft) N-NO5,0 km/h (1 Bft) N-NO (00:15)
Erlenmoos645 m05:55-3,1-3,1 (05:45)-0,9 (00:00)0,0 l/m²86%1022,86,4 km/h (2 Bft) NO12,9 km/h (3 Bft) O-NO (01:35)
Ertingen569 m05:55-3,3-3,3 (05:40)-0,6 (00:00)0,0 l/m²84%1022,88,0 km/h (2 Bft) N16,1 km/h (3 Bft) N-NO (04:10)
Friedrichshafen405 m05:55-1,4-1,4 (06:45)0,9 (13:30)0,0 l/m²77%1022,79,7 km/h (2 Bft) N-NO27,4 km/h (4 Bft) NO (15:10)
Günzburg443 m05:55-4,7-4,7 (05:50)-1,1 (00:00)0,0 l/m²87%1020,90,0 km/h (0 Bft) NO0,0 km/h (0 Bft) NO (00:00)
Hochdorf-Appendorf537 m05:55-5,3-5,4 (05:45)-1,7 (00:15)0,0 l/m²66%1022,68,0 km/h (2 Bft) N-NO14,5 km/h (3 Bft) N-NW (03:20)
Höchsten802 m05:55-3,6-3,6 (05:55)-1,4 (00:00)0,0 l/m²80%1020,422,5 km/h (4 Bft) NO25,7 km/h (4 Bft) NO (02:45)
Horgenzell618 m05:55-1,9-1,9 (03:45)-0,6 (00:05)0,0 l/m²76%1020,24,8 km/h (1 Bft) N-NO19,3 km/h (3 Bft) N-NO (00:50)
Hoßkirch632 m05:55-6,2-6,2 (05:45)-1,0 (00:15)0,0 l/m²86%1021,74,8 km/h (1 Bft) O14,5 km/h (3 Bft) O-NO (00:20)
Isny, Am Dreifingerbach695 m05:55-4,1-4,4 (05:00)0,1 (01:00)0,0 l/m²82%1021,50,0 km/h (0 Bft) W14,5 km/h (3 Bft) O-NO (01:05)
Isny, Weidachweg706 m05:55-3,7-3,8 (05:45)0,3 (00:25)0,0 l/m²75%1023,71,6 km/h (1 Bft) W12,9 km/h (3 Bft) W (00:10)
Kappel-Grafenhausen163 m05:50-1,2-1,2 (06:55)3,3 (14:55)0,0 l/m²76%1021,29,7 km/h (2 Bft) N30,6 km/h (5 Bft) N-NO (16:55)
Kißlegg-Staibshof709 m05:55-3,1-3,1 (05:55)-0,9 (00:00)0,0 l/m²82%1022,54,8 km/h (1 Bft) O-NO14,5 km/h (3 Bft) O (01:50)
Kressbronn398 m05:56-1,8-1,8 (05:52)1,4 (00:00)0,0 l/m²74%1021,40,0 km/h (0 Bft) NO22,5 km/h (4 Bft) NO (00:54)
Kreuzthal-Steinberg-Alpe930 m05:50-4,1-4,8 (04:00)-2,5 (00:00)0,0 l/m²87%1023,01,4 km/h (1 Bft) N22,0 km/h (4 Bft) W-NW (00:10)
Kreuzthal-Steinberggipfel1040 m05:50-3,5-4,0 (02:20)-3,1 (00:10)-75%1023,014,8 km/h (3 Bft) O-NO37,1 km/h (5 Bft) O-SO (00:10)
Kristberg im Montafon (AT)1425 m05:55-6,5-6,6 (04:51)-5,3 (00:40)0,0 l/m²60%1026,33,2 km/h (1 Bft) N-NO10,1 km/h (2 Bft) NO (01:47)
Laupheim500 m05:55-3,4-3,4 (05:30)0,0 (00:00)0,0 l/m²82%1022,43,2 km/h (1 Bft) NO9,7 km/h (2 Bft) O-SO (00:20)
Leutkirch-Heggelbach670 m05:55-4,6-4,6 (05:40)-2,6 (00:30)0,0 l/m²87%1021,80,0 km/h (0 Bft) N8,0 km/h (2 Bft) N-NO (03:30)
Lindau-Insel420 m05:55-1,1-1,1 (07:25)1,8 (14:55)0,0 l/m²72%1021,70,0 km/h (0 Bft) O-NO29,0 km/h (5 Bft) NO (17:05)
Lindau-Stadt412 m05:55-1,9-2,0 (07:25)1,2 (14:55)0,0 l/m²76%1021,81,6 km/h (1 Bft) NO33,8 km/h (5 Bft) N-NO (15:40)
Maierhöfen im Allgäu733 m05:55-3,4-3,4 (05:50)-1,2 (01:35)0,0 l/m²76%1021,91,6 km/h (1 Bft) O-NO25,7 km/h (4 Bft) O-SO (02:05)
Maselheim543 m05:55-4,8-4,8 (06:40)-2,3 (13:20)0,0 l/m²85%1023,13,2 km/h (1 Bft) NW24,1 km/h (4 Bft) O-NO (15:20)
Maselheim-Sulmingen548 m05:55-4,7-4,9 (06:40)-2,2 (15:15)0,0 l/m²89%1024,43,2 km/h (1 Bft) N20,9 km/h (4 Bft) N-NO (12:15)
Mietingen-Baltringen528 m05:55-4,7-4,7 (05:40)-1,3 (00:45)0,0 l/m²86%1024,80,0 km/h (0 Bft) O-NO4,8 km/h (1 Bft) N-NO (01:20)
Mindelheim-Apfeltrach620 m05:56-5,4-5,4 (05:47)-2,7 (00:00)0,0 l/m²88%1024,00,0 km/h (0 Bft) NO0,0 km/h (0 Bft) O-NO (00:00)
Mittelbiberach577 m05:56-4,2-4,3 (04:39)-1,0 (00:16)0,0 l/m²83%1024,14,8 km/h (1 Bft) N12,8 km/h (3 Bft) NO (05:56)
Neresheim552 m05:00-6,2-6,2 (05:00)-2,0 (00:00)0,0 l/m²88%1022,10,0 km/h (0 Bft) O4,0 km/h (1 Bft) NO (01:00)
Neukirch570 m05:55-2,9-2,9 (06:05)-0,9 (14:35)0,0 l/m²80%1022,14,8 km/h (1 Bft) N-NO37,0 km/h (5 Bft) N-NO (11:55)
Ochsenhausen, Birkenstraße613 m05:55-5,1-5,1 (07:10)-2,2 (12:50)0,0 l/m²81%1023,30,0 km/h (0 Bft) NO3,2 km/h (1 Bft) S-SW (07:05)
Ochsenhausen, Unt. Wiesen575 m05:55-5,3-5,5 (05:35)-2,4 (00:00)0,0 l/m²89%1024,50,0 km/h (0 Bft) NO4,8 km/h (1 Bft) NO (00:00)
Opfenbach-Göritz561 m05:56-4,8-5,2 (05:22)-2,8 (00:00)0,0 l/m²76%1020,21,4 km/h (1 Bft) N-NO6,5 km/h (2 Bft) O-NO (00:18)
Ostrach619 m05:55-3,5-3,8 (04:15)-0,6 (00:00)0,0 l/m²88%1021,34,8 km/h (1 Bft) N-NW8,0 km/h (2 Bft) N-NW (04:40)
Ravensburg, Goethestraße428 m05:55-1,5-1,5 (05:50)1,3 (00:00)0,0 l/m²79%1021,812,9 km/h (3 Bft) NO14,5 km/h (3 Bft) O-NO (02:45)
Ravensburg-Wernsreute511 m05:55-2,7-2,9 (06:15)0,0 (15:50)0,0 l/m²81%1024,519,3 km/h (3 Bft) N35,4 km/h (5 Bft) N-NO (11:45)
Reichenbach an der Fils343 m05:55-1,9-1,9 (05:55)1,0 (00:00)0,0 l/m²77%1025,51,6 km/h (1 Bft) SO12,9 km/h (3 Bft) O-SO (05:10)
Riedlingen530 m05:55-2,9-2,9 (05:55)-1,0 (00:00)0,0 l/m²81%1023,10,0 km/h (0 Bft) NO0,0 km/h (0 Bft) N (00:00)
Rißtissen489 m05:55-2,9-2,9 (05:50)-0,2 (00:00)0,0 l/m²85%1020,80,0 km/h (0 Bft) O-NO8,0 km/h (2 Bft) O-NO (03:30)
Rottweil-Hausen681 m05:53-4,2-4,3 (04:46)-1,9 (00:00)0,0 l/m²82%1023,66,5 km/h (2 Bft) NW6,5 km/h (2 Bft) N (02:14)
Schemmerhofen520 m05:552,72,7 (00:00)2,7 (00:00)0,0 l/m²55%1022,00,0 km/h (0 Bft) NO0,0 km/h (0 Bft) NO (00:00)
Silbertal im Montafon (AT)884 m05:55-4,1-4,2 (05:54)-1,6 (00:01)0,0 l/m²85%1026,00,0 km/h (0 Bft) O-NO0,0 km/h (0 Bft) O-NO (00:00)
Tettnang466 m05:54-1,1-1,2 (05:49)1,0 (00:00)0,0 l/m²71%1021,811,2 km/h (2 Bft) O16,2 km/h (3 Bft) O-SO (01:07)
Tuttlingen648 m05:46-4,3-4,3 (05:41)-2,1 (00:01)0,0 l/m²75%1023,60,0 km/h (0 Bft) W-SW5,2 km/h (1 Bft) W-SW (03:26)
Tuttlingen, Möhringer-Vorstadt711 m05:55-4,1-4,2 (07:10)-2,4 (16:05)0,0 l/m²82%1022,64,8 km/h (1 Bft) O-NO25,7 km/h (4 Bft) N-NW (12:35)
Ummendorf547 m05:55-4,2-4,2 (05:55)-0,7 (00:10)0,0 l/m²67%1023,90,0 km/h (0 Bft) O-NO16,1 km/h (3 Bft) O (01:05)
Ummendorf-Fischbach558 m05:55-5,1-5,1 (05:50)-1,9 (01:25)0,0 l/m²70%1023,80,0 km/h (0 Bft) O4,8 km/h (1 Bft) O (04:20)
Waldburg707 m05:55-3,0-3,0 (05:55)-0,8 (00:00)0,0 l/m²80%1021,69,7 km/h (2 Bft) N19,3 km/h (3 Bft) N (02:35)
Waltenhofen im Allgäu720 m05:50-7,0-7,2 (05:30)-2,2 (01:05)0,0 l/m²90%1022,70,0 km/h (0 Bft) N-NW17,7 km/h (3 Bft) N-NW (11:50)
Wangen, Südring548 m05:55-3,9-3,9 (05:54)-0,3 (00:00)0,0 l/m²83%1021,74,7 km/h (1 Bft) NO13,0 km/h (3 Bft) NO (01:25)
Warthausen-Birkenhard581 m05:54-4,2-4,3 (05:35)-1,2 (00:00)0,0 l/m²86%1023,48,6 km/h (2 Bft) N11,9 km/h (3 Bft) N-NO (02:49)
Winterlingen785 m05:45-5,4-5,5 (05:30)-2,8 (01:00)0,0 l/m²84%1022,71,8 km/h (1 Bft) NO3,6 km/h (1 Bft) NO (00:55)

niederschlagsdatenbank | info | login - erfassung

Sollten Sie Interesse haben, an der Niederschlagsdatenbank teilzunehmen, finden Sie > hier < weitere Informationen.
Datum: . . Kalender
Anmerkung:0,0 = nicht messbarer Niederschlag
 -  = kein Niederschlag
 k  = kumulierter Niederschlag

< 25.04.201927.04.2019 >


Niederschlagswerte vom 26.04.2019    -    derzeit 112 Stationen

Die Niederschlagswerte des gewählten Tages lassen sich durch Klicken auf das Datum sortieren.
Die Angaben sind in l/m².

Station23.04.24.04.25.04.26.04.27.04.28.04.29.04.Bemerkung 26.04.
Aichstetten Ulmenstraße 7-------
Aichstetten-Nestbaum Nestbaum---8,06,01,06,0
Albbruck Furmisstr. 18--1,08,212,32,8-
Bis am Nachmittag Regen, danach aufgelockerte Bewölkung +10°C Nac [weiterlesen...]
Regen Nieselregen
Allmendingen Querqueviller Ring 6---8,02,04,81,0
Regen
Amstetten-Reutti Gassenäcker 13---5,25,21,23,6
Regen
Aulendorf Steinenbacher Weg 33---11,45,04,53,0
Regen
Aulendorf-Blönried Heuweg 32---9,02,91,92,7
Regen Nieselregen
Bad Bellingen Rheinstraße 76-------
Bad Buchau Hanfweiher 1-----11,52,5
Bad Saulgau Walserweg---8,05,01,51,5
Regen
Bad Saulgau-Hochberg Lampertsweiler Straße 12---8,06,06,02,5
Bad Schussenried Konradstraße---9,74,65,32,2
Regen
Bad Schussenried Lortzingstrasse---11,54,5-2,2
Regen
Bad Schussenried Klosterstraße---10,05,04,02,0
Regen
Bad Schussenried Theodor-Storm-Strasse------21,5
Bad Schussenried-Hopferbach Unterer Öschweg 16/1---11,25,07,03,0
Regen Nieselregen
Bad Schussenried-Lufthütte Hauptgasse 17---11,06,55,02,0
Bad Schussenried-Sattenbeuren Ortsstraße 7-------
Bad Schussenried-Schwaigfurt Schwaigfurt 2---10,83,05,02,0
Bad Waldsee-Haisterkirch Zur Spitzenkapelle 1---8,55,50,24,0
+13° um 0:00 , tags +5/+8°C, 10:00-16:00 nach fast 2 Wochen Trockenh [weiterlesen...]
Regen
Bad Wurzach-Seibranz Kimpflerhof 2 ---9,36,51,09,0
Baienfurt Untere Bergstrasse 7---9,05,03,05,0
Regen
Balzheim Hinterm Liess 19---5,03,08,05,0
Regen
Berg-Kleintobel Kleintobel--6,67,85,11,24,8
Regen
Biberach Amriswilstrasse---8,52,20,84,2
Regen Nieselregen
Biberach Strölinweg---9,02,51,03,5
Regen Nieselregen
Biberach Erlenweg---9,52,0--
Regen
Biberach Neue Heimat 5-------
Biberach Mittelbergstraße 9------14,5
Biberach Auf dem Lindele-------
Biberach-Bergerhausen Löcherstr.1---9,02,51,02,0
Bierstetten Schloßbühl 6---11,55,04,81,0
Regen
Blaubeuren-Pappelau Sotzenhauserstr.7---8,03,09,5-
Regen
Bühlertal Wolfinstraße 16-1,5-13,06,010,0-
Regen
Dettingen a. d. Iller Schleifweg 4---4,0---
Dornstadt-Tomerdingen Maienweg 9---7,16,81,21,2
Dürnau Dorfäckerweg 5---8,52,01,52,0
Regen
Eberhardzell Lilienweg--0,0----
Ebersbach-Roßwälden Appenwiesen---7,17,10,06,3
Ab dem Vormittag Regen. ABENDS trocken.

Kälter 5,8 bis 9,2 Grad
Regen
Ehingen Rosenstraße---6,61,62,81,1
Regen
Ehingen Zanderstraße---5,91,02,50,9
Regen
Ehingen Schlaufenbühl---8,81,83,20,9
Regen
Ehingen Schillerstraße---7,21,82,91,0
Regen
Ehingen-Herbertshofen Tobelweg 9-------
Eislingen Albstraße 125-0,0-7,57,50,26,2
Regen
Erbach-Bach Hauptstraße 24-------
Erlenmoos Haldenweg 15---6,44,5-4,4
Regen
Füramoos Hungersberg 1--0,00,00,00,00,0
Gutenzell Kleinser Berg 1---5,53,52,53,0
Gutenzell-Hürbel Bei der Sägmühle 1---8,53,03,06,0
Regen
Herbertingen Drosselweg---7,52,52,51,5
Erstes Nieseln kurz vor 9 Uhr.Danach Regen bis in den Nachmittag. Frü [weiterlesen...]
Regen Nieselregen
Herbertingen Hirschstrasse---7,05,01,52,0
Regen Nieselregen
Hochdorf-Schweinhausen Lindenweg 2---10,63,90,1-
Hohentengen-Bremen Bremer Halde 4---10,03,53,0-
Regen
Horgenzell-Ringgenweiler Ringgenweiler 620---8,08,15,72,6
Regen
Hüttisheim Ulmer Weg 2---6,52,53,52,5
Regen
Illerkirchberg Mahdauweg 20---4,65,74,73,6
Wusste kaum mehr wie man den Niederschlag einträgt - ne, die Menge is [weiterlesen...]
Regen
Illerrieden-Wangen Am Muckenberg 12---5,02,01,52,5
Immenstaad Stockwiesen 10-------
Inzigkofen Butzenweg 1--0,57,03,14,00,5
Regen
Isny Am Dreifingerbach 39---10,610,83,64,8
Regen Schneeregen
Kirchberg Rosenstr. 7---6,0-10,05,0
Regen
Kreuzthal-Steinberg-Alpe Im Kreuzbachthal 85--0,210,316,12,911,7
Regen Nieselregen Schneeregen Schnee Graupel
Langenau Wasserstr. 54-1---2,04,01,02,0
Langenenslingen Schattenweiler Str. 18---6,71,65,10,9
Regen Nieselregen
Leutkirch Unterer Auenweg 25---5,67,00,07,7
Regen
Leutkirch Nachtigallenweg 28---6,010,01,011,0
Leutkirch-Adrazhofen Bergstraße 20---5,58,50,510,0
Merklingen Millergasse 9-------
Mietingen Seerosenweg 10-------
Mietingen-Walpertshofen Bussenweg 31---8,03,09,06,0
Mittelbiberach-Reute Rindenmooser Straße 2---9,83,31,04,8
Regen Nieselregen
Moosburg Käserweg 5---8,53,00,62,5
Überwiegend vormittags Schauer.
Regen
Münsingen-Rietheim In der Lise 20---7,05,01,03,8
Regen
Neresheim Alfred-Delp-Straße 8---3,24,00,12,8
Regen Nieselregen
Oberdischingen Normannenstraße 7---9,92,43,71,8
Regen
Ochsenhausen Ehrensberger Weg 5---6,84,00,02,2
Regen
Öpfingen Hauptstraße 99---9,02,01,11,1
Regen Nieselregen
Ostrach Uhlandweg---9,56,01,0-
Regen
Pfaffenhofen-Kadeltshofen Mühlbachstraße 4---3,02,00,02,0
nach 2 Wochen endlich etwas Regen
Pfullendorf Am Schweizersbild ---10,43,50,40,7
Rangendingen Donaustraße 19---6,04,02,02,0
Ravensburg Bleicherstraße---9,07,82,04,0
Ravensburg-Schmalegg St.-Magdalena-Ring 42---7,86,02,54,9
Ravensburg-Wernsreute Wernsreute 25---10,64,64,48,4
Regen
Ravensburg-Weststadt Karl-Erb-Ring 142---8,58,22,55,1
Regen
Regensburg Orleansstraße 3-------
Riedhausen Blütenweg 13---11,25,80,22,4
Temp. +4,3°C / +7,2°C, Windböen SW 25,7 km/h
Regen
Riedlingen Berliner Str. 41----6,55,51,0
Riedlingen-Neufra Panoramaweg---5,51,01,01,0
Regen Nieselregen
Riedlingen-Neufra Riedlinger Strasse0,00,00,06,01,55,81,5
+ 7,2 Grad, 93 % LF, trocken, bedeckter Himmel
Schelklingen-Gundershofen Schwarzer-Straße 14---8,05,01,01,0
Temp. zw. +4,1°C und +11,1°C. Morgens wolkig, dann ganzer Tag Regen. [weiterlesen...]
Schemmerberg Drosselweg 9---10,02,04,22,7
Schwörstadt Schulstrasse 19-13,21,06,218,22,60,2
Regen
Seekirch Haldenberg 7--9,00,5-2,02,0
Sigmaringendorf Weingartenstraße 7---7,2-4,10,1
Regen Nieselregen
Tuttlingen Möhringerstraße 11---10,24,010,01,2
Regen
Ulm Eberhardtstraße 75----3,52,03,1
Ummendorf Tulpenweg---9,22,50,05,0
Regen
Ummendorf Friedrich-Schiller-Str.---4,02,0-0,0
Regen
Uttenweiler-Ahlen Seekircher Straße 8---7,3-2,03,2
Regen
Vöhringen (Schwarzwald) Drosselweg 3--5,0-7,03,04,0
Waldburg Kastanienweg11---12,08,14,5-
Wangen-Bergerhöhe Berg 2---11,27,210,05,8
Warthausen An der Schloßhalde ---8,52,55,82,5
Regen
Warthausen Schwabenwiesen ---8,42,15,62,2
Regen
Warthausen-Barabein Barabein 20---8,23,05,04,0
Regen
Weingarten Laurastraße---9,05,04,03,5
+ 4,4 ° C um 6.00 Uhr
Regen Nieselregen
Weingarten Hoyerstraße-------
Weingarten Marienstraße---8,04,52,53,0
Regen
Wolfegg-Veesers Veesers 1---8,0--13,0
Wolpertswende Aulendorfer Str. 17---8,10,00,0-
Regen

Stillgelegte Niederschlagsstationen    -    derzeit 49 Stationen

StationLetzte Meldung23.04.24.04.25.04.26.04.27.04.28.04.29.04.Bemerkung 26.04.
Allmannsweiler Eggatsweilerstr.2802.09.2014-------
Aulendorf-Rugetsweiler Erikaweg 325.07.2013-------
Aulendorf-Zollenreute Imterstraße 1209.02.2019-------
Bad Saulgau Willi-Burth-Straße19.09.2011-------
Bad Saulgau Eichendorffweg28.03.2013-------
Bad Saulgau Seewattenstraße 12815.01.2014-------
Bad Saulgau-Lampertsweiler Valentinstr. 2618.02.2015-------
Bad Schussenried-Steinhausen Drosselgasse 4/126.09.2012-------
Bad Waldsee-Michelwinnanden Michelberg 531.12.2014-------
Bad Waldsee-Osterhofen Hochwaldgasse 406.03.2015-------
Bad Waldsee-Steinach Hofraingasse 1510.11.2013-------
Bad Wurzach-Dietmanns Postweg 519.01.2019-------
Bad Wurzach-Haidgau Wengener Straße 507.10.2012-------
Bad Wurzach-Ziegelbach Ziegelbach-Greut 507.11.2014-------
Bergatreute Bolanden 113.02.2012-------
Betzenweiler Offinger Straße 505.01.2017-------
Burgrieden Am Nonnenberg 328.10.2013-------
Burgrieden-Rot Schmiedgasse 518.09.2013-------
Eberhardzell Schillerstraße05.07.2010-------
Ehingen Am Elzengraben17.06.2016-------
Gammertingen Schillerstraße 2216.01.2016-------
Griesingen Blumenstraße 906.10.2015-------
Günzburg Erlenbadweg 34 1/231.12.2010-------
Hoßkirch Kirchstraße 805.01.2018-------
Ingoldingen-Grodt Ingoldinger Weg 1919.11.2016-------
Kisslegg Kirchmoosstraße02.05.2011-------
Krauchenwies-Hausen Rosenrain 123.11.2013-------
Kressbronn Irisstraße 410.03.2010-------
Leutkirch-Ottmannshofen Spitalriedstraße 527.07.2012-------
Leutkirch-Rotis Rotis 5/208.05.2016-------
Leutkirch-Wuchzenhofen Untere Kirchstraße 18/119.09.2016-------
Mietingen Hangweg 1530.12.2017-------
Mössingen-Bästenhardt Weissdornweg 721.07.2014-------
Ostrach Heiligenberger Straße19.08.2013-------
Pfullendorf Ringstraße 18.03.2012-------
Ravensburg Olgastraße30.10.2016-------
Seltmans Amselweg 2209.04.2013-------
Stuttgart-Bad Cannstatt Beuthener Str. 6703.02.2013-------
Stuttgart-Möhringen Glashütter Weg 1023.04.2017-------
Stuttgart-Rohr Hirschsprung 307.11.2012-------
Talheim Im Schecken 2121.08.2016-------
Tannheim Eggmannstr. 42 22.10.2017-------
Tettnang-Ramsbach Jahnstr. 24/126.03.2011-------
Tuttlingen-Möhringen Belchenstraße01.01.2015-------
Ummendorf Bergstraße23.10.2017-------
Vogt Mühlwies 1822.05.2015-------
Wangen-Atzenberg Keplerweg 324.02.2019-------
Weingarten Bischof-Sproll-Straße30.06.2011-------
Wilhelmsdorf Riedhauser Straße 28.10.2012-------
Wilhelmsdorf Seefeld20.08.2013-------
Wurmlingen An der Steig 3014.10.2016-------
Die Niederschlagswerte des gewählten Tages lassen sich durch Klicken auf das Datum sortieren.
Die Angaben sind in l/m².

Wetterbeobachtungen Legende:

  • Regen
  • Nieselregen
  • Schneeregen
  • Schnee
  • Graupel
  • Eiskörner
  • Hagel
  • Bodennebel
  • Gewitter
  • Nebelnässe
  • Schneegriesel

Grafische Darstellung der Tagesniederschläge vom 26.04.2019

< 25.04.201927.04.2019 >Monats- und Jahresniederschlag


 
wetterstationen
wetterstationen
- derzeit 83 Stationen
niederschlagsdatenbank
wetterstationen
- kartographische Darstellung
niederschlagsdatenbank
niederschlagsstationen
- derzeit 112 Stationen
niederschlagsdatenbank
niederschlagsstationen
- kartographische Darstellung
 
  treffpunkt & service
--- Anzeigen --------------------------------
zugriffe:
insgesamt: 46.623.187
aktueller monat: 376
heute: 376
momentan online: 19
 
 
monatshöchstwert: 653.625
vorheriger monat: 364.213
gestern: 13.565
tageshöchstwert: 57.073
 
wetterwarte süd
 
konradstraße 3
info@wetterwarte-sued.com
roland roth
 
88427 bad schussenried